GFSSW_925_temp_057.txt.gz
Temp
8 9 8 9 8 8 8 8 8 9 8 8 9 12 14 15 15 17 20 22 21 20 20 23 25 26 27 29 31 32 30 30 32 33 34 35 34 33 33 33 34 35 34 34 33
8 8 8 8 8 8 8 8 8 9 9 8 10 13 14 14 14 22 21 21 20 19 21 25 27 28 28 29 30 30 30 30 33 34 34 35 35 33 31 32 32 33 34 34 34
8 8 8 8 8 8 8 8 8 8 9 8 10 14 15 13 20 25 21 20 19 19 23 24 26 28 28 30 30 30 29 32 33 34 35 34 35 34 32 30 31 33 34 34 33
7 8 8 7 7 7 8 8 8 8 8 8 11 14 15 13 24 23 21 20 20 19 24 26 27 27 27 28 30 29 31 31 32 33 33 32 33 33 33 33 31 31 32 32 32
7 7 7 7 7 7 7 8 8 8 8 9 13 14 13 22 25 21 20 20 20 23 25 27 27 27 28 29 30 29 30 31 31 31 31 32 30 31 32 32 33 30 30 31 32
7 7 8 7 7 7 7 8 8 8 8 10 14 13 15 22 23 22 21 22 23 24 26 26 27 28 27 28 28 30 29 29 30 30 30 29 30 30 31 32 32 31 30 31 32
7 7 7 7 7 8 8 8 9 11 11 12 14 12 20 24 23 23 23 23 24 24 26 26 26 26 28 27 28 28 27 28 29 29 29 29 28 29 31 32 31 31 31 31 31
7 7 7 7 7 8 8 12 14 14 15 15 14 14 22 23 23 23 23 24 24 24 24 25 25 26 26 28 26 26 27 26 29 30 29 29 27 30 32 31 30 30 31 31 31
6 7 7 7 7 8 12 14 14 15 15 14 12 17 24 21 22 23 24 25 25 24 24 24 25 25 27 25 26 27 26 28 29 29 28 28 27 30 31 29 29 29 29 29 30
7 7 7 7 7 11 13 14 14 14 13 14 18 20 23 24 24 24 24 24 25 25 25 24 25 25 25 26 25 27 27 28 28 28 27 27 28 29 30 29 28 29 29 29 28
6 7 7 7 11 13 13 15 18 19 19 22 23 23 24 24 23 23 24 24 25 25 24 25 25 25 26 27 27 26 26 27 28 29 26 26 27 28 30 29 29 29 29 28 29
6 8 10 13 14 15 13 23 21 20 21 24 24 23 23 24 24 25 24 24 24 24 25 25 24 26 27 26 24 25 25 26 27 27 26 25 26 27 28 28 29 29 29 29 29
9 12 14 15 15 16 20 20 20 20 22 24 24 24 24 24 24 25 25 25 24 24 25 24 26 25 25 24 24 24 24 25 25 26 25 25 25 26 28 28 29 29 29 29 29
12 14 15 15 14 20 21 20 20 20 22 23 24 25 24 25 24 26 25 25 25 24 25 25 26 24 24 24 25 24 26 25 24 23 24 26 24 27 28 27 28 28 28 28 28
14 14 15 15 18 22 20 20 20 20 22 24 25 25 26 24 25 24 25 25 23 24 24 24 25 24 23 24 25 24 25 24 24 23 24 24 24 26 28 28 28 27 27 27 27
15 15 15 16 18 20 20 20 20 21 22 24 25 24 24 24 25 26 24 25 25 24 24 24 25 25 25 25 25 24 24 23 24 24 23 25 25 27 28 28 28 27 27 27 27
15 15 15 16 21 20 19 22 21 22 24 24 24 24 24 25 25 25 24 23 22 22 22 24 24 25 25 23 24 23 22 22 23 23 23 26 25 26 27 27 27 27 27 27 27
15 15 16 17 19 19 20 22 20 24 24 25 23 24 23 24 25 25 24 23 24 24 23 22 21 24 24 23 22 22 22 22 21 23 25 25 24 26 27 27 26 26 26 26 26
15 16 17 19 18 18 21 22 23 24 23 22 23 23 23 25 24 23 23 23 24 24 20 20 21 22 23 23 23 22 21 23 21 23 22 24 25 27 26 26 25 26 25 25 26
13 20 21 18 18 19 21 21 23 23 22 22 21 23 22 24 24 23 23 23 22 23 22 21 19 23 22 23 23 22 23 18 20 19 19 23 24 25 25 25 26 25 25 25 26
14 22 19 18 18 21 21 23 23 23 22 21 21 21 22 22 23 23 22 23 22 22 22 21 20 20 22 21 20 21 20 21 21 19 18 21 23 25 23 25 25 25 25 25 24
18 22 19 19 21 23 22 22 16 21 22 21 21 21 20 21 21 21 21 21 19 21 20 20 18 19 20 23 23 23 21 20 19 19 22 22 23 26 24 25 25 24 24 25 25
20 22 20 20 20 22 23 22 22 21 21 21 20 21 21 20 19 20 20 20 20 19 19 19 16 15 18 21 23 21 22 22 21 20 19 18 21 25 24 24 25 25 25 25 25
19 21 23 22 21 19 20 20 20 21 20 20 19 20 20 19 20 19 18 17 18 19 16 17 17 16 16 18 13 13 15 19 18 17 18 20 21 23 24 23 24 25 25 25 25
21 20 17 20 21 19 19 19 19 19 20 20 19 20 19 18 18 19 19 19 19 18 18 17 15 16 17 19 19 18 19 20 20 19 18 20 21 22 23 23 24 24 24 24 23
17 17 19 19 19 18 16 19 19 19 18 17 18 18 18 17 17 17 18 18 18 19 18 17 13 15 15 18 19 19 21 21 21 21 21 21 21 24 25 24 23 23 22 21 21
15 16 16 17 19 19 20 18 18 17 18 18 17 17 16 17 17 17 17 17 17 16 15 15 13 14 14 17 16 18 21 21 22 22 22 21 22 22 22 23 22 21 20 19 19

GFSSW_925_temp_060.txt.gz
Temp
8 8 8 9 9 9 9 8 9 9 9 9 9 10 11 12 14 15 17 22 22 21 21 22 25 26 27 28 30 31 29 29 29 31 33 36 35 35 34 34 34 35 35 36 34
8 8 8 8 8 8 8 8 8 9 9 9 9 11 12 12 12 18 22 22 22 22 22 24 26 28 28 28 29 30 29 29 31 32 33 34 35 36 33 32 33 34 35 35 35
8 8 8 8 8 8 8 8 8 8 9 8 10 13 14 13 18 24 21 22 22 21 21 24 27 28 28 29 29 29 29 31 32 33 33 33 34 36 33 32 33 33 34 34 34
7 8 8 8 8 8 8 8 8 8 8 10 13 14 14 12 23 22 22 22 21 20 22 26 27 27 27 28 30 29 30 31 32 32 33 33 34 34 34 31 34 33 33 33 32
8 7 7 7 7 7 8 8 8 8 9 12 14 14 13 20 23 21 22 22 21 21 25 27 27 28 27 29 30 30 30 31 32 32 32 33 33 33 33 34 34 32 32 32 31
7 7 7 7 7 7 8 8 8 8 11 14 14 14 14 20 25 22 22 22 23 25 26 28 28 29 27 28 29 30 31 31 31 31 32 31 31 32 32 33 33 33 32 31 31
7 7 7 7 7 8 8 8 8 9 12 14 14 12 18 22 25 24 24 24 25 26 27 27 27 27 28 27 29 29 28 30 29 30 30 31 29 30 32 32 32 32 32 32 32
6 7 7 7 7 8 8 11 12 12 13 15 14 14 20 24 25 25 25 25 25 25 25 26 26 26 26 28 28 27 27 26 29 29 30 30 27 30 31 31 31 32 32 32 32
7 7 7 7 7 8 12 13 14 15 15 14 12 16 22 23 24 25 25 26 26 26 26 25 26 25 26 26 25 27 25 27 28 30 31 30 28 30 31 31 31 31 32 31 31
6 7 7 7 10 13 14 14 13 14 15 13 17 20 23 25 25 25 25 25 26 26 26 25 25 24 25 25 24 26 27 28 28 30 30 29 28 30 30 31 30 30 30 30 30
6 9 11 12 14 14 14 15 17 17 19 22 24 23 26 26 25 25 25 25 25 25 24 26 24 24 26 27 27 27 27 26 29 31 29 28 28 29 30 30 30 29 29 29 29
11 12 14 15 16 15 13 19 23 22 21 25 25 25 26 26 25 25 25 24 25 23 25 25 24 26 27 27 27 26 25 25 27 29 28 28 27 28 28 29 29 30 29 29 29
12 14 15 16 16 15 17 22 22 23 22 25 26 25 25 25 25 26 26 25 24 24 25 25 26 27 26 26 25 25 25 25 26 28 28 27 25 26 27 28 29 29 30 30 29
14 15 15 16 14 21 23 22 22 22 21 25 25 26 26 26 24 27 27 26 25 24 25 25 27 26 25 25 25 24 26 26 26 25 24 26 24 27 28 29 29 29 29 29 29
14 15 16 15 16 22 22 22 22 22 20 26 26 27 27 25 26 26 27 26 24 25 25 24 25 25 25 24 26 25 26 25 25 24 24 24 24 25 28 28 28 28 29 29 29
15 15 16 18 16 20 22 22 22 21 20 25 27 25 25 26 26 27 26 26 25 24 25 25 26 26 25 26 26 26 25 24 24 23 22 23 24 25 27 28 29 28 28 28 28
16 15 15 16 20 22 21 23 21 21 27 26 26 26 26 25 26 26 25 25 23 22 22 24 25 26 26 24 25 24 22 21 21 22 22 25 25 26 28 28 30 28 28 28 28
16 15 16 17 19 21 21 21 20 25 26 27 26 25 24 26 26 26 26 25 26 24 23 20 19 23 25 20 21 23 22 20 18 20 21 24 21 27 29 29 28 27 27 27 27
15 17 17 19 20 20 21 20 22 25 25 24 24 23 24 26 26 25 25 25 25 25 22 18 20 24 23 24 22 21 22 23 20 18 20 22 24 26 27 27 27 27 27 26 26
11 18 21 21 20 20 20 19 23 26 25 24 22 23 22 24 24 24 24 23 21 22 24 22 20 23 24 22 21 22 23 20 19 17 19 22 23 24 25 26 26 26 26 26 26
13 22 21 20 20 21 20 22 25 25 24 22 22 21 22 22 22 23 23 23 20 21 21 22 21 21 22 22 21 21 20 21 19 18 16 18 21 22 23 22 22 23 26 25 26
17 21 21 21 21 22 22 25 21 24 24 23 23 22 21 22 21 22 21 21 19 19 18 16 13 17 20 22 22 22 21 21 17 17 20 21 22 22 23 23 21 23 25 25 25
16 21 22 21 20 21 22 23 23 23 23 22 21 22 22 21 19 21 21 21 20 19 16 16 14 15 17 19 19 17 15 16 16 20 17 17 20 25 17 22 21 20 21 26 26
17 20 23 23 23 21 21 20 21 23 22 22 21 21 21 20 21 20 20 19 18 18 17 17 17 17 16 17 13 12 15 16 17 14 16 19 20 23 23 20 19 17 20 24 24
18 20 19 19 20 19 20 20 20 21 22 21 20 20 20 18 19 19 20 20 20 17 17 16 15 17 18 19 18 13 16 17 17 18 17 20 20 22 24 24 24 24 23 21 20
17 16 17 17 19 19 19 20 20 21 20 19 18 19 19 18 18 18 18 18 18 19 16 17 12 15 16 18 18 18 20 20 20 21 21 21 21 25 21 21 21 22 20 18 19
14 15 16 16 18 19 20 20 19 19 19 20 19 18 18 18 18 18 18 18 18 17 17 17 16 15 14 17 18 17 19 20 20 22 22 21 19 18 19 18 18 20 20 19 20

GFSSW_925_temp_063.txt.gz
Temp
8 8 8 8 8 8 8 8 8 9 9 8 9 10 10 11 14 14 13 19 20 22 22 21 22 23 24 23 24 25 23 23 24 26 27 30 30 30 32 32 33 34 34 32 34
8 8 8 8 8 8 8 8 8 8 9 9 9 9 11 12 12 12 21 20 21 22 21 22 22 24 22 24 23 23 23 24 26 27 28 29 30 31 31 31 31 32 34 34 33
7 8 8 8 8 8 8 8 8 8 9 8 8 9 12 13 13 19 23 21 21 22 22 22 23 24 22 23 23 24 23 26 27 28 29 29 30 31 31 29 30 30 31 32 30
7 7 7 7 7 7 8 8 8 8 8 8 8 9 12 12 18 22 22 22 22 22 21 22 22 22 22 22 24 23 26 27 28 29 29 29 30 30 31 30 31 30 31 31 29
7 7 7 7 7 7 8 8 8 8 8 8 8 9 12 14 17 22 22 22 22 22 21 21 22 23 21 23 24 24 25 27 28 28 29 29 29 29 29 30 30 30 31 29 30
7 7 7 7 7 8 8 8 8 8 9 9 9 10 11 16 23 23 23 22 22 22 22 23 24 24 25 24 23 25 25 26 27 27 27 28 28 28 29 30 31 30 29 28 28
7 7 7 7 7 8 8 8 9 11 10 12 9 9 14 16 23 23 23 23 23 24 24 26 26 24 22 22 24 25 24 24 25 26 27 27 26 27 29 29 29 29 29 28 27
6 7 7 7 8 8 8 11 12 13 14 11 10 11 13 22 23 23 23 24 24 25 25 25 26 23 23 22 23 22 23 21 24 26 26 27 24 27 28 27 27 28 28 28 27
6 7 7 7 8 11 13 14 14 15 15 14 12 12 17 23 24 25 25 25 25 25 25 26 25 23 22 21 19 21 20 21 23 25 26 25 25 27 27 27 26 26 27 28 26
10 8 10 12 13 14 15 15 15 14 14 12 14 15 18 23 25 25 25 25 25 25 24 24 21 20 19 19 18 20 21 23 24 26 26 26 26 27 26 26 25 27 27 28 28
12 12 13 14 15 15 15 15 13 13 16 17 20 20 23 26 25 25 25 25 25 23 20 21 19 18 19 22 23 23 23 23 25 26 25 24 25 26 26 26 25 24 25 25 26
14 14 14 15 16 15 13 14 21 21 19 21 21 22 24 26 24 25 25 23 22 20 21 20 19 22 24 25 24 24 23 22 23 25 25 23 24 25 26 25 24 24 23 23 24
14 15 15 16 16 16 16 18 22 22 18 21 24 25 25 25 24 24 24 23 22 21 22 20 22 25 25 24 24 23 22 22 22 24 24 23 22 24 25 25 25 25 24 23 22
14 15 15 16 16 17 18 22 22 22 16 22 24 25 26 25 23 25 26 24 23 22 22 22 24 25 25 24 24 21 24 24 24 22 19 23 19 21 24 23 24 25 26 24 23
14 15 16 15 15 15 21 22 22 21 16 25 25 26 26 24 25 24 26 25 22 22 22 21 22 23 23 24 25 23 24 23 23 20 19 21 18 21 23 23 24 24 25 24 24
15 15 15 17 15 19 20 21 21 17 18 25 25 25 24 24 25 25 25 24 24 22 22 22 23 23 23 24 25 25 23 21 20 19 17 20 19 20 21 23 25 24 23 23 23
16 16 13 14 16 20 20 19 16 17 24 25 25 26 25 24 25 24 24 22 20 19 19 21 22 23 22 21 23 22 20 17 16 16 17 21 21 21 22 24 25 24 22 22 22
16 17 17 17 18 19 20 16 17 22 24 25 24 24 23 24 24 25 24 23 24 22 18 16 17 20 21 17 15 16 17 16 15 15 18 19 18 18 24 25 24 22 21 21 21
16 16 16 20 19 18 16 15 18 22 24 23 23 22 22 23 23 23 23 23 23 20 18 16 14 17 19 17 19 18 15 17 17 18 14 16 19 22 23 24 24 23 23 22 21
13 14 18 20 19 19 16 16 18 22 24 23 20 22 20 21 20 20 21 21 20 20 18 16 16 20 21 22 21 19 19 16 14 14 14 17 19 20 20 22 24 23 21 21 23
12 15 21 20 20 16 15 18 21 24 24 22 21 20 20 20 20 20 20 21 20 19 18 15 14 15 17 19 17 17 16 16 15 14 13 14 17 19 20 19 19 20 21 22 21
11 14 21 21 16 16 17 21 19 22 23 22 22 20 19 19 18 19 19 19 20 19 16 15 13 13 15 17 17 17 14 12 13 14 14 14 16 22 19 18 18 18 19 20 19
9 14 21 21 16 16 19 20 20 21 21 22 20 20 19 18 16 18 19 21 19 15 13 13 13 11 14 17 16 14 15 15 11 12 13 13 15 19 18 17 17 17 18 20 20
10 15 17 17 17 16 17 18 19 21 21 22 20 19 18 17 17 17 18 20 19 16 14 15 14 13 12 14 14 12 14 15 12 12 14 14 15 16 18 17 17 17 18 18 18
11 15 15 14 15 14 16 17 18 19 20 19 18 18 17 15 16 16 17 17 18 17 17 14 13 14 14 16 16 16 16 16 14 15 14 15 17 17 16 17 19 18 17 18 17
11 12 11 12 15 15 16 17 18 19 18 17 17 18 17 15 16 15 15 15 16 16 17 13 10 13 13 16 17 17 18 18 17 16 16 16 17 15 15 16 17 17 18 17 16
10 12 10 12 14 14 15 15 17 18 18 19 17 16 15 16 15 15 14 14 14 14 13 13 12 11 11 15 15 14 16 15 16 17 15 13 13 14 14 15 15 15 16 16 16

GFSSW_925_temp_069.txt.gz
Temp
8 8 8 8 8 8 8 8 8 8 8 8 8 8 8 8 9 11 9 20 20 20 20 20 20 21 21 20 21 21 19 17 20 21 23 24 25 27 27 27 28 29 29 29 31
7 7 7 7 7 7 7 8 8 8 8 8 8 8 8 8 8 8 22 20 21 20 20 19 20 20 19 20 20 20 17 19 22 22 23 23 24 25 26 26 27 27 30 29 28
7 7 7 7 7 7 7 8 8 8 8 8 8 8 8 8 10 17 21 22 21 20 19 20 20 20 20 20 19 19 20 21 22 23 23 24 25 25 26 25 25 26 28 28 26
7 7 7 7 7 7 7 8 8 8 8 8 8 8 8 10 19 22 22 23 21 19 19 19 19 19 19 19 19 20 21 21 22 23 23 23 25 25 25 25 26 27 27 27 25
7 7 7 7 7 7 8 8 8 8 8 8 7 8 10 11 13 22 21 21 20 19 19 19 19 19 20 20 20 20 20 22 22 22 22 23 23 24 25 27 26 27 27 26 25
9 7 7 7 7 8 8 8 8 8 8 8 8 8 9 13 21 21 21 20 20 19 19 19 20 19 20 20 20 21 21 21 21 21 21 22 24 23 26 26 26 27 26 25 25
11 10 8 7 7 7 8 8 9 9 9 8 8 9 10 14 20 20 21 21 20 20 20 20 21 21 21 20 21 21 21 20 21 23 22 21 22 23 24 25 25 26 26 25 25
13 12 12 12 13 14 14 13 13 13 10 9 9 9 11 19 20 20 21 21 21 21 20 22 22 21 21 21 19 19 19 18 20 22 23 24 22 23 24 25 25 25 25 25 25
14 13 14 14 14 16 15 15 15 14 11 9 10 10 13 19 18 22 21 21 22 22 22 22 22 20 20 18 15 15 17 18 19 21 22 23 21 23 23 22 22 23 23 24 24
14 15 14 15 15 16 16 16 14 13 11 10 11 12 16 21 22 23 23 22 21 21 21 22 16 17 14 15 15 16 17 18 18 20 22 20 20 21 21 22 22 21 22 22 22
14 15 16 16 16 16 16 14 13 13 12 16 17 17 19 21 23 23 23 21 22 21 19 19 17 16 17 17 18 18 17 17 19 21 21 20 20 20 20 20 20 21 19 20 20
15 15 15 16 16 17 16 13 17 17 14 15 17 17 20 20 19 20 23 21 21 19 19 17 16 18 18 19 18 18 17 18 19 20 19 19 20 19 21 21 20 20 19 20 21
14 15 15 17 16 16 15 17 18 17 15 18 17 18 19 19 18 19 21 20 20 19 18 17 19 20 20 19 19 19 18 18 18 21 20 21 19 20 22 22 22 21 21 21 20
14 14 14 15 14 14 15 19 18 17 15 18 19 20 20 21 21 22 22 21 19 19 18 17 19 19 19 19 20 18 20 20 20 19 17 20 18 19 20 20 20 20 19 18 19
14 15 14 11 13 13 19 19 18 17 16 22 21 23 21 21 23 23 22 21 19 19 18 18 20 20 19 20 19 19 20 19 19 18 18 18 16 16 19 19 19 20 20 20 18
14 14 12 11 10 17 18 18 18 15 16 22 23 22 21 22 22 23 22 21 21 19 19 19 20 20 20 19 20 19 19 18 15 15 15 17 16 19 19 19 20 20 19 20 21
14 15 14 12 15 17 18 15 15 14 21 21 22 22 21 21 22 22 21 19 19 17 17 18 19 18 19 18 17 17 14 13 14 15 17 17 16 19 20 19 19 19 18 19 20
14 15 15 15 16 17 17 15 15 18 20 22 21 21 21 20 20 20 19 17 18 18 15 16 16 18 19 18 17 15 16 13 14 13 16 17 15 19 19 19 19 18 17 16 14
14 15 15 17 18 17 14 14 15 18 20 20 20 20 19 20 20 19 19 18 18 18 17 14 14 16 17 18 17 15 13 13 13 13 13 13 15 19 19 20 19 18 17 15 15
11 11 14 17 18 17 13 14 16 19 20 20 19 20 19 18 18 18 17 19 17 18 17 16 14 16 17 17 15 14 13 12 12 13 14 13 14 15 17 17 18 19 15 15 15
10 9 16 16 18 14 14 14 17 20 20 19 19 19 18 17 17 17 18 18 18 16 15 14 13 14 15 15 14 13 12 12 11 12 13 13 13 15 15 14 14 17 16 16 14
7 10 17 17 14 12 14 16 16 19 19 19 19 19 18 17 17 17 17 18 18 16 15 13 11 11 13 14 15 14 12 12 10 12 12 12 12 15 14 14 14 15 19 18 18
6 7 16 16 13 12 14 16 17 17 18 18 18 18 17 17 16 16 16 17 17 15 13 12 10 9 11 12 14 14 13 12 11 10 11 11 11 16 15 15 14 14 15 17 19
6 8 9 10 11 13 12 14 14 17 17 18 18 18 17 16 16 16 16 17 16 16 16 13 10 11 10 12 11 11 12 12 10 10 11 12 13 15 14 14 14 13 13 13 14
8 8 8 8 11 11 11 12 13 13 15 16 17 16 16 15 15 14 15 15 15 16 12 11 11 11 11 12 12 12 13 13 11 12 11 14 13 14 12 12 13 12 13 13 13
7 8 7 6 9 11 11 11 11 12 12 13 14 15 15 14 14 14 14 13 13 13 13 9 9 12 11 13 13 12 13 13 14 15 14 14 12 13 12 12 13 12 12 12 13
7 8 8 9 9 10 10 11 11 9 11 14 14 14 14 14 14 13 12 12 13 12 11 10 9 9 11 12 11 11 12 12 12 12 11 12 12 12 11 11 11 11 11 12 12

GFSSW_925_temp_072.txt.gz
Temp
7 8 7 8 8 8 8 8 8 8 8 8 8 8 8 8 8 10 8 19 19 19 20 19 20 20 20 20 20 19 17 16 19 20 23 23 23 25 26 26 26 27 27 27 29
7 7 7 7 8 7 8 8 8 8 8 8 8 8 8 8 8 7 21 20 19 19 19 19 19 19 18 19 19 18 15 18 19 21 22 22 23 23 24 24 25 25 26 28 26
7 7 7 7 7 7 7 7 8 8 8 8 8 8 8 8 8 17 19 19 20 19 19 19 20 20 20 19 19 19 18 20 21 22 21 22 23 24 24 24 24 25 25 27 25
7 7 7 7 7 7 8 8 8 8 8 8 8 7 8 9 19 20 21 21 20 19 18 19 18 18 18 19 19 19 19 21 21 22 22 22 23 23 22 24 24 24 24 26 25
11 9 7 7 7 7 8 8 8 8 8 8 7 7 10 12 13 20 20 21 18 18 19 18 18 18 19 19 19 19 20 21 21 20 20 21 21 22 23 24 24 24 24 24 24
13 11 10 7 7 7 8 7 7 7 8 8 8 7 9 15 19 19 19 20 19 19 18 18 18 18 20 19 19 20 20 20 20 20 20 21 22 21 23 24 24 24 24 23 23
12 10 9 11 11 9 10 12 11 9 8 8 8 8 9 14 19 19 19 20 20 20 18 19 20 20 19 20 20 20 20 19 20 22 21 20 21 21 23 23 22 23 24 23 22
13 11 9 12 14 14 14 14 14 13 10 9 8 8 11 19 19 20 19 19 20 20 20 20 21 20 20 20 17 19 17 18 19 20 22 22 21 22 22 22 23 23 23 23 23
14 13 13 13 13 15 15 15 15 13 10 9 9 9 13 18 18 22 21 20 20 20 20 20 20 18 18 16 15 14 16 17 18 19 21 20 20 21 22 22 21 21 22 23 22
14 14 14 14 13 13 15 14 13 12 9 9 10 11 15 20 21 21 22 20 21 20 20 19 15 16 13 14 15 16 17 17 17 19 20 18 18 19 20 19 19 19 19 20 22
14 14 15 15 14 11 13 12 12 12 11 15 16 15 18 21 21 21 21 19 20 20 19 18 17 15 17 16 17 17 17 16 17 19 19 18 18 18 19 18 19 18 17 18 20
14 14 14 15 13 12 13 13 17 16 13 14 15 16 18 19 19 20 21 20 19 18 18 17 16 16 18 18 17 17 16 16 17 18 17 17 17 17 19 19 19 19 18 17 17
13 13 14 14 13 12 13 16 17 16 14 16 16 17 17 18 17 18 20 19 20 18 17 16 18 19 19 19 18 17 17 17 17 18 18 18 18 19 19 19 20 19 19 18 18
13 13 13 14 13 12 13 17 17 16 14 17 18 19 19 18 19 20 21 21 19 18 17 17 18 19 18 18 18 17 18 18 18 17 16 19 17 18 18 19 20 20 18 17 18
13 14 13 11 12 12 17 17 17 17 16 21 20 21 19 20 22 22 21 21 19 18 18 18 19 19 19 19 19 17 19 18 18 16 16 17 15 19 18 18 18 18 18 19 17
13 14 13 11 10 16 17 17 17 16 16 21 22 20 20 21 21 22 21 21 20 18 18 18 19 20 19 19 19 18 17 16 14 14 14 17 15 18 19 17 18 18 18 18 17
13 14 13 12 14 16 16 15 16 15 20 21 21 22 20 20 21 21 20 18 18 17 16 18 18 18 19 18 17 15 14 12 12 12 16 17 15 18 19 19 19 18 18 16 14
13 14 13 13 15 15 16 15 15 18 19 21 20 20 20 20 20 20 19 17 18 17 14 15 16 18 17 18 17 16 14 12 11 14 15 15 14 18 19 20 18 18 17 14 14
12 14 15 15 16 15 14 15 16 17 19 19 19 19 19 19 19 19 18 17 17 17 16 14 15 16 17 17 16 14 13 13 13 14 13 13 14 17 17 15 15 17 15 15 15
9 10 14 15 15 15 12 14 16 18 19 19 18 20 19 18 18 18 17 18 18 16 16 16 14 15 16 16 13 14 13 13 12 13 12 13 13 15 15 14 15 14 15 14 14
9 10 16 15 15 11 12 15 17 18 18 18 18 18 18 17 17 17 18 18 17 15 15 14 13 14 14 14 13 12 11 11 11 12 12 12 13 14 13 13 13 13 14 13 14
7 12 16 16 14 9 12 14 15 16 17 17 18 18 18 17 17 17 17 17 17 15 15 13 11 11 13 14 13 13 12 10 8 8 9 8 12 16 14 14 13 13 13 13 12
5 5 15 14 13 11 11 14 15 16 15 17 17 17 17 17 16 16 16 16 16 15 13 12 11 10 12 13 13 13 12 11 10 8 10 9 12 14 14 13 12 12 12 12 13
6 8 7 7 8 11 10 12 13 15 14 15 16 16 16 16 16 15 16 16 16 16 16 13 9 11 11 12 10 11 12 11 10 7 11 11 13 14 15 12 12 11 11 12 12
6 7 7 6 8 8 10 11 12 12 14 12 14 15 14 14 15 14 14 15 15 15 11 11 11 10 11 11 11 12 12 12 9 11 10 12 12 13 12 11 11 11 11 12 12
6 6 6 6 8 9 11 11 12 12 10 10 10 13 13 12 14 13 13 13 13 13 12 9 9 11 11 12 11 11 12 12 12 11 11 11 11 13 12 11 11 11 11 11 11
7 7 7 8 9 9 10 11 11 10 10 11 10 10 11 13 13 13 12 12 13 11 10 9 9 8 10 11 10 10 11 12 11 11 12 11 11 10 9 10 10 10 10 10 10

GFSSW_925_temp_075.txt.gz
Temp
8 8 8 8 8 8 8 8 8 8 8 8 8 8 8 8 8 8 11 18 18 18 18 19 19 20 21 23 22 22 23 24 24 23 25 25 25 26 27 27 28 29 29 30 27
8 8 8 8 7 7 7 8 8 8 8 8 8 8 8 8 8 9 20 19 18 19 18 20 21 21 22 22 23 23 22 23 23 24 24 25 25 25 26 27 27 28 30 29 26
8 7 7 7 7 7 7 8 8 8 8 8 8 8 7 8 10 19 18 18 18 17 19 20 20 22 22 21 21 21 22 22 23 24 24 24 24 26 26 26 27 27 29 30 29
8 8 8 7 7 7 8 8 8 8 8 8 7 7 7 8 21 19 20 19 19 19 19 20 21 21 21 22 22 22 21 23 24 24 24 24 25 25 26 26 27 27 28 28 29
9 8 8 7 7 8 8 8 8 7 8 8 8 7 8 12 17 19 20 20 18 18 20 21 21 21 22 22 21 22 22 23 23 23 23 24 24 25 26 27 27 27 27 28 28
12 10 11 12 11 9 8 8 8 8 7 8 8 7 9 17 19 18 19 19 19 18 19 20 22 22 22 22 22 22 22 23 23 23 23 23 25 24 26 27 27 27 27 28 28
13 13 13 13 14 14 13 10 8 9 8 8 8 8 10 18 18 18 18 18 19 19 20 19 21 22 22 22 22 22 22 22 23 24 24 24 24 23 25 26 26 27 28 28 28
13 13 13 13 13 15 15 14 13 9 8 8 8 9 15 18 18 18 17 18 19 19 20 20 20 21 22 21 21 22 21 22 23 22 24 23 24 25 25 24 25 26 27 27 27
13 14 13 13 13 13 14 15 14 11 9 8 8 10 18 18 18 20 20 20 19 19 19 20 21 20 21 21 21 20 22 21 22 23 22 23 24 24 25 25 24 24 25 26 26
13 13 14 13 12 12 12 13 12 10 9 9 10 13 17 21 20 20 19 20 21 21 21 21 20 21 20 21 21 20 20 20 20 23 22 22 23 24 24 24 24 24 25 25 25
12 13 13 14 13 9 11 11 14 13 11 18 19 19 20 20 20 20 19 20 21 21 21 20 21 21 21 21 21 20 20 20 21 22 21 22 22 23 24 24 24 25 24 24 25
12 13 13 13 13 11 11 14 18 17 16 16 16 17 18 18 19 21 20 22 21 21 20 21 21 21 21 20 20 20 20 21 21 22 21 22 22 23 23 24 25 25 25 24 24
12 13 13 13 13 11 11 15 16 16 17 18 17 17 18 19 19 20 22 21 21 20 20 20 21 20 20 20 20 21 20 21 21 21 22 22 22 23 24 23 24 25 25 24 24
12 12 12 12 11 12 13 15 16 16 17 19 19 20 19 20 20 21 22 23 21 21 20 20 21 20 20 20 21 20 21 21 20 20 21 21 20 23 23 23 24 25 25 26 24
12 12 12 8 9 12 15 16 16 16 18 21 21 20 19 21 22 21 21 22 21 21 20 21 21 21 21 21 21 21 21 20 20 20 20 21 20 22 23 22 23 24 25 25 25
12 12 10 10 8 14 15 16 16 18 18 21 21 20 20 21 22 21 21 22 21 21 20 21 21 21 21 20 20 20 20 20 18 20 19 21 21 21 23 23 24 24 24 24 24
11 12 10 10 14 14 16 17 18 17 21 20 21 21 21 21 21 22 21 21 21 20 20 21 21 21 20 20 19 19 19 19 19 20 20 20 19 21 22 22 22 23 24 23 21
12 13 12 12 13 14 15 18 17 18 19 21 20 21 20 21 20 21 20 20 19 19 20 19 19 19 19 20 19 19 18 18 16 18 19 19 17 20 21 19 19 20 20 19 19
12 13 13 13 15 14 18 17 18 18 19 19 20 19 19 19 20 20 19 19 19 19 19 18 18 18 18 18 19 17 17 16 16 17 16 18 19 21 19 18 18 19 19 19 19
10 10 13 14 14 15 17 16 17 18 18 19 18 19 18 19 17 18 19 19 19 18 18 18 18 17 18 18 16 17 17 15 14 14 16 18 18 18 18 17 18 18 18 17 18
10 15 15 15 14 17 17 16 17 18 17 17 18 18 19 18 18 19 19 19 18 17 18 17 17 17 17 18 18 16 15 14 14 12 14 15 18 17 17 17 17 18 17 16 16
8 16 15 15 16 13 15 15 15 17 17 17 17 18 18 18 17 17 18 18 18 17 17 15 16 16 17 17 16 16 16 16 14 13 12 12 15 19 19 17 16 16 16 15 16
9 10 14 13 15 14 13 15 16 16 16 15 15 17 18 17 17 17 17 18 17 17 16 15 15 15 16 15 15 15 15 15 14 13 13 13 16 18 17 18 18 17 16 16 16
11 12 12 12 11 11 11 13 13 15 14 15 15 17 16 16 17 16 16 17 17 17 16 15 15 16 16 17 15 14 15 15 15 13 14 15 16 17 17 17 17 16 16 16 16
10 9 9 11 12 10 10 12 13 13 13 13 13 14 13 14 14 15 16 16 16 15 14 15 15 14 15 15 15 15 15 15 15 15 13 15 15 16 16 15 15 15 15 15 15
11 11 9 9 10 10 11 12 12 11 11 11 10 11 11 11 13 13 15 15 15 14 14 12 14 13 14 15 15 14 15 15 15 15 15 15 14 15 15 15 15 15 14 14 15
6 7 9 9 10 10 11 10 10 9 10 11 11 10 10 11 12 14 14 14 15 15 14 14 14 13 14 14 14 15 15 14 14 14 14 13 16 15 14 14 13 13 14 14 14